Simultaneous Nadir Overpasses (SNOs) Predictions

Prediction of SNOs between GOES-15 and NPP Satellite Orbit:

Table of predicted SNOs for the next 14.0 days since TLE Epoch: 8/3/2024
Index Date Time (GOES-15) GOES-15 Lat,Lon NPP Lat,Lon Distance(km) Time Diff (sec)
1 08/04/2024 09:28:06 -0.41, 61.43 -0.94, 59.10 266.74 56
2 08/05/2024 09:08:58 -0.39, 61.46 0.10, 63.62 245.74 80
3 08/06/2024 21:33:25 0.42, 61.59 1.13, 58.36 368.74 80
4 08/07/2024 21:12:01 0.40, 61.63 0.14, 62.89 143.07 80
5 08/09/2024 09:33:58 -0.43, 61.60 -1.33, 57.58 458.69 80
6 08/10/2024 09:17:54 -0.42, 61.64 -0.34, 62.11 53.74 80
7 08/12/2024 21:20:58 0.42, 61.81 0.50, 61.37 49.28 80
8 08/13/2024 20:59:33 0.40, 61.85 -0.50, 65.90 461.73 80
9 08/15/2024 09:21:30 -0.42, 61.84 -0.68, 60.59 142.25 80
10 08/16/2024 09:05:26 -0.41, 61.89 0.33, 65.12 369.09 80
